Regional Weather Roundup
Issued by NWS Sterling, VA

Home | Current Version | Previous Version | Text Only | Print | Product List | Glossary On
Versions: 1 2 3 4 5 6 7 8 9 10 11 12 13 14 15 16 17 18 19 20 21 22 23 24 25 26 27 28 29 30 31 32 33 34 35 36 37 38 39 40 41 42 43 44 45 46 47 48 49 50
000
ASUS41 KLWX 230210
RWRLWX

REGIONAL WEATHER ROUNDUP
NATIONAL WEATHER SERVICE BALTIMORE MD/WASHINGTON DC
1000 PM EDT FRI AUG 22 2014

Note: "FAIR" indicates few or no clouds below 12,000 feet
with no significant weather and/or obstructions to visibility.
 TC=TEMPERATURE CELSIUS

 * =Non NWS site. Station does not report precipitation (e.g. rain,
    snow, etc.), thunder, or fog.

DCZ001-MDZ009-015-VAZ040>042-051-053>054-230300-
WASHINGTON METRO
  /KDAA//-FT BELVOIR

CITY           SKY/WX    TMP DP  RH WIND       PRES   REMARKS
WASHINGTON NAT CLOUDY    77  69  76 SE6       30.01R
DULLES         PTCLDY    72  69  90 E5        29.99R
ANDREWS AFB    PTCLDY    71  71  98 E6        30.00R
QUANTICO       CLOUDY    77  72  83 NE5       29.99R
COLLEGE PARK*  MOCLDY    72  70  94 CALM      30.00R
LEESBURG*      CLOUDY    73  72  94 E3        30.01R
MANASSAS*      CLOUDY    75  73  94 E7        29.99R
GAITHERSBURG*  PTCLDY    70  66  88 E6        30.04S

$$

MDZ006>007-011-014-230300-
BALTIMORE METRO

CITY           SKY/WX    TMP DP  RH WIND       PRES   REMARKS
BWI AIRPORT    MOCLDY    73  67  81 E7        30.00R
MD SCIENCE CTR   N/A     75  67  76 MISG      30.01R
MARTIN STATE   CLOUDY    75  70  83 E9        30.02S
ANNAPOLIS        N/A     75  67  76 E12       30.00R
FORT MEADE*    PTCLDY    70  64  83 E5        30.03R

$$

MDZ012-015-019>023-230300-
MARYLAND EASTERN SHORE

CITY           SKY/WX    TMP DP  RH WIND       PRES   REMARKS
OCEAN CITY     PTCLDY    74  67  78 NE10G20   29.98S
SALISBURY      CLEAR     72  67  84 NE7       29.99R
BAY BRIDGE AP*   N/A     72  66  83 E7        30.00S
CAMBRIDGE*     CLEAR     72  70  94 E5        29.99S

$$

MDZ017>025-230300-
SOUTHERN MARYLAND

CITY           SKY/WX    TMP DP  RH WIND       PRES   REMARKS
PATUXENT RIVER CLOUDY    74  69  85 E9        29.99R
ST INIGOES     CLEAR     72  67  84 E6        29.98R
LEONARDTOWN*   CLOUDY    72  68  88 CALM      30.01R

$$

MDZ003>005-230300-
NORTH CENTRAL MARYLAND

CITY           SKY/WX    TMP DP  RH WIND       PRES   REMARKS
FREDERICK*     CLOUDY    73  72  94 E6        30.02S
HAGERSTOWN APT MOCLDY    73  68  84 E6        30.00R HAZE
WESTMINSTER*   CLOUDY    73  70  88 SE7       30.02R

$$

MDZ501>502-230300-
WESTERN MARYLAND

CITY           SKY/WX    TMP DP  RH WIND       PRES   REMARKS
OAKLAND*       CLOUDY    64 N/A N/A SW5       30.09R FOG
CUMBERLAND*    MOCLDY    72  68  88 CALM      30.03S

$$

VAZ025>031-230300-
SHENANDOAH VALLEY

CITY           SKY/WX    TMP DP  RH WIND       PRES   REMARKS
WINCHESTER*    CLOUDY    72  70  94 CALM      30.00R
STAUNTON*      MOCLDY    73  69  89 CALM      30.03R

$$

WVZ021-048>050-054>055-230300-
EASTERN WEST VIRGINIA PANHANDLE

CITY           SKY/WX    TMP DP  RH WIND       PRES   REMARKS
MARTINSBURG    CLOUDY    74  67  78 CALM      30.00R
PETERSBURG*    NOT AVBL

$$

VAZ036>039-050-230300-
CENTRAL FOOTHILLS

CITY           SKY/WX    TMP DP  RH WIND       PRES   REMARKS
CHARLOTTESVILL MOCLDY    74  70  87 CALM      29.99S
ORANGE*        PTCLDY    70  68  94 CALM      30.00R FOG

$$

VAZ055>057-230300-
NORTH AND CENTRAL PIEDMONT

CITY           SKY/WX    TMP DP  RH WIND       PRES   REMARKS
FREDERICKSBRG* MOCLDY    74  73  99 CALM      29.98R
STAFFORD*      CLOUDY    74  74 100 NE5       30.02S

$$

NCZ024-NYZ072-PAZ021-071-VAZ022-071-230300-
OTHER REGIONAL OBSERVATIONS

CITY           SKY/WX    TMP DP  RH WIND       PRES   REMARKS
NEW YORK CITY  CLOUDY    71  58  63 E7        30.08R
PHILADELPHIA   MOCLDY    71  62  73 E10       30.04R
PITTSBURGH     CLOUDY    72  70  93 W5        29.98R
ROANOKE        CLOUDY    77  70  79 SW3       30.02R
RICHMOND       MOCLDY    75  70  84 E3        29.97R
RALEIGH        MOCLDY    77  73  87 CALM      29.97R

$$

ANZ530>537-230300-
MARINE OBSERVATIONS

STATION/POSITION TIME  TEMP    WIND        PRES
                       AIR SEA DIR/SP/G
                 (UTC) (F)     (DEG/KT/KT) (MB)
THOMAS PT LIGHT  0200   74 78  110/ 11/ 14 1016.3R
BALT KEY BRIDGE  0200   74     100/ 13/ 14 1015.6R
COVE POINT       0200   74     100/  9/ 10 1015.5R
LEWISETTA        0200   76 80  100/ 11/ 13 1014.9R
SOLOMONS ISLAND  0200      80                N/A
PINEY POINT      0200          100/  7/  9   N/A

$$




USA.gov is the U.S. government's official web portal to all federal, state and local government web resources and services.